Regional Weather Roundup
Issued by NWS Sterling, VA

Home | Current Version | Previous Version | Text Only | Print | Product List | Glossary Off
Versions: 1 2 3 4 5 6 7 8 9 10 11 12 13 14 15 16 17 18 19 20 21 22 23 24 25 26 27 28 29 30 31 32 33 34 35 36 37 38 39 40 41 42 43 44 45 46 47 48 49 50

000
ASUS41 KLWX 250810
RWRLWX

REGIONAL WEATHER ROUNDUP
NATIONAL WEATHER SERVICE BALTIMORE MD/WASHINGTON DC
400 AM EDT SAT MAR 25 2017

Note: "FAIR" indicates few or no clouds below 12,000 feet
with no significant weather and/or obstructions to visibility.
 TC=TEMPERATURE CELSIUS

 * =Non NWS site. Station does not report precipitation (e.g. rain,
    snow, etc.), thunder, or fog.

DCZ001-MDZ009-015-VAZ040>042-051-053>054-250900-
WASHINGTON METRO

CITY           SKY/WX    TMP DP  RH WIND       PRES   REMARKS
WASHINGTON NAT MOCLDY    56  48  74 S10       30.14F
DULLES         CLOUDY    57  45  64 S7        30.14F
ANDREWS AFB    PTCLDY    59  46  62 SW8       30.13F
FT BELVOIR     CLOUDY    59  46  62 CALM      30.14F
QUANTICO       CLOUDY    55  47  74 S9        30.16F
COLLEGE PARK*  CLOUDY    52  45  76 CALM      30.13F
LEESBURG*      CLOUDY    59  50  72 SW5       30.14F
MANASSAS*      CLOUDY    53  46  77 S5        30.15F

$$

MDZ006>007-011-014-250900-
BALTIMORE METRO

CITY           SKY/WX    TMP DP  RH WIND       PRES   REMARKS
BWI AIRPORT    PTCLDY    60  47  61 SW9       30.12F
MD SCIENCE CTR   N/A     58  44  60 MISG      30.13F
MARTIN STATE   CLOUDY    46  45  93 CALM      30.15S
ANNAPOLIS      PTCLDY    62  47  57 SW5       30.13F
FORT MEADE*    MOCLDY    55  45  67 SW6       30.15F

$$

MDZ012-015-019>023-250900-
MARYLAND EASTERN SHORE

CITY           SKY/WX    TMP DP  RH WIND       PRES   REMARKS
OCEAN CITY     CLOUDY    54  46  74 SW10      30.19F
SALISBURY      CLOUDY    59  48  67 SW12G23   30.17F
BAY BRIDGE AP* PTCLDY    61  46  59 SW9       30.14S
CAMBRIDGE*     CLEAR     57  48  72 S7        30.16F
EASTON*        MOCLDY    58  47  65 SW7       30.19S

$$

MDZ017>025-250900-
SOUTHERN MARYLAND

CITY           SKY/WX    TMP DP  RH WIND       PRES   REMARKS
PATUXENT RIVER PTCLDY    59  50  72 SW13      30.16F
ST INIGOES     PTCLDY    58  47  66 S9        30.17F
LEONARDTOWN*   CLOUDY    59  46  63 SW8       30.18F

$$

MDZ003>005-250900-
NORTH CENTRAL MARYLAND

CITY           SKY/WX    TMP DP  RH WIND       PRES   REMARKS
FREDERICK*     CLOUDY    52  48  87 CALM      30.16S
HAGERSTOWN APT CLOUDY    56  45  66 S8        30.12F
WESTMINSTER*   CLOUDY    57  46  67 SW8       30.13S

$$

MDZ501>502-250900-
WESTERN MARYLAND

CITY           SKY/WX    TMP DP  RH WIND       PRES   REMARKS
OAKLAND*       CLOUDY    57  45  62 W16G22    30.19S
CUMBERLAND*    CLOUDY    61  46  59 CALM      30.16S

$$

VAZ025>031-250900-
SHENANDOAH VALLEY

CITY           SKY/WX    TMP DP  RH WIND       PRES   REMARKS
WINCHESTER*    MOCLDY    59  45  58 SW8       30.13F
FRONT ROYAL*     N/A    N/A N/A N/A MISG        N/A
LURAY*         CLOUDY    59  50  72 S8        30.16F
NEW MARKET*    MOCLDY    58  46  63 W7        30.16F
STAUNTON*      MOCLDY    56  46  69 SW5       30.20F
WAYNESBORO*    CLOUDY    59  48  66 SW6       30.19F

$$

WVZ021-048>050-054>055-250900-
EASTERN WEST VIRGINIA PANHANDLE

CITY           SKY/WX    TMP DP  RH WIND       PRES   REMARKS
MARTINSBURG    CLOUDY    60  45  57 S7        30.12F
PETERSBURG*    MOCLDY    60  48  64 E7        30.14S

$$

VAZ036>039-050-250900-
CENTRAL FOOTHILLS

CITY           SKY/WX    TMP DP  RH WIND       PRES   REMARKS
CHARLOTTESVILL CLOUDY    58  47  66 S8        30.17F
CULPEPER*      MOCLDY    59  48  66 CALM      30.15F
ORANGE*        MOCLDY    59  45  58 SW9       30.17F
GORDONSVILLE*  CLOUDY    58  47  67 SW9       30.17F
WARRENTON*     CLOUDY    60  44  54 S5        30.14F

$$

VAZ055>057-250900-
NORTH AND CENTRAL PIEDMONT

CITY           SKY/WX    TMP DP  RH WIND       PRES   REMARKS
FREDERICKSBRG* CLOUDY    61  49  65 SW9       30.16F
STAFFORD*      CLOUDY    60  47  61 SW5       30.20S

$$

NCZ024-NYZ072-PAZ021-071-VAZ022-071-250900-
OTHER REGIONAL OBSERVATIONS

CITY           SKY/WX    TMP DP  RH WIND       PRES   REMARKS
NEW YORK CITY  CLOUDY    52  35  52 W12G17    30.09F
PHILADELPHIA   MOCLDY    47  38  71 SW6       30.12F
PITTSBURGH     CLOUDY    65  52  62 SW8       30.12S
ROANOKE        CLOUDY    59  46  62 SW5       30.25F
RICHMOND       CLOUDY    58  48  69 S12       30.22F
RALEIGH        CLOUDY    56  49  77 SW7       30.30F

$$

ANZ530>537-250900-
MARINE OBSERVATIONS

STATION/POSITION TIME  TEMP    WIND        PRES
                       AIR SEA DIR/SP/G
                 (UTC) (F)     (DEG/KT/KT) (MB)
THOMAS PT LIGHT  0800   60 44  230/  9/ 10   N/A
BALT KEY BRIDGE  0748   61     220/  7/ 10 1020.1F
COVE POINT       0748   60     240/ 16/ 21 1021.8F
LEWISETTA        0748   58 48  230/ 13/ 16 1021.9F
SOLOMONS ISLAND  0748   57 45  220/ 17/ 20   N/A
PINEY POINT      0742          220/ 12/ 13   N/A

$$




USA.gov is the U.S. government's official web portal to all federal, state and local government web resources and services.